Regional Weather Roundup
Issued by NWS Little Rock, AR

Home | Current Version | Previous Version | Text Only | Print | Product List | Glossary Off
Versions: 1 2 3 4 5 6 7 8 9 10 11 12 13 14 15 16 17 18 19 20 21 22 23 24 25 26 27 28 29 30 31 32 33 34 35 36 37 38 39 40 41 42 43 44 45 46 47 48 49 50

000
ASUS44 KLZK 300505
RWRLZK

WEATHER ROUNDUP FOR ARKANSAS
NATIONAL WEATHER SERVICE LITTLE ROCK AR
1200 AM CDT SAT AUG 30 2014

NOTE: "FAIR" INDICATES FEW OR NO CLOUDS BELOW 12,000 FEET WITH NO
SIGNIFICANT WEATHER AND/OR OBSTRUCTIONS TO VISIBILITY.

ARZ001-003-010-029-300600-
NORTHWEST ARKANSAS

CITY           SKY/WX    TMP DP  RH WIND       PRES   REMARKS
FAYETTEVILLE   PTCLDY    70  68  93 S6        29.97S
FORT SMITH     PTCLDY    75  72  90 NE7       29.94R
HARRISON       PTCLDY    70  69  97 SE6       30.00R
BENTONVILLE    PTCLDY    73  66  78 S3        29.98R
ROGERS         PTCLDY    73  67  81 S7        29.99R
SILOAM SPGS    CLEAR     70  63  78 SE3       29.98R
HIGHFILL       PTCLDY    72  67  84 S5        29.97R
$$

ARZ004-005-016-300600-
NORTH CENTRAL ARKANSAS

CITY           SKY/WX    TMP DP  RH WIND       PRES   REMARKS
BATESVILLE     CLOUDY    72  72 100 CALM      29.99R
FLIPPIN        CLOUDY    73  66  78 CALM      29.98S
MTN HOME       CLOUDY    72  70  93 S5        29.98R
$$

ARZ040-041-300600-
WEST CENTRAL ARKANSAS

CITY           SKY/WX    TMP DP  RH WIND       PRES   REMARKS
MENA           CLOUDY    75  73  94 CALM      29.98S
MOUNT IDA      MOCLDY    73  71  93 CALM      29.95S FOG
$$

ARZ009-017-025-026-028-300600-
NORTHEAST ARKANSAS

CITY           SKY/WX    TMP DP  RH WIND       PRES   REMARKS
CORNING          N/A     73  73 100 MISG      29.99R
JONESBORO      CLOUDY    73  72  96 CALM      29.99R
NEWPORT        CLOUDY    74  73  96 SE3       30.00R
WALNUT RIDGE   CLOUDY    73  70  88 S5        29.98S
BLYTHEVILLE    CLOUDY    73  72  96 E5        30.00R
$$

ARZ022-023-033-042-044-300600-
CENTRAL ARKANSAS

CITY           SKY/WX    TMP DP  RH WIND       PRES   REMARKS
LITTLE ROCK    CLOUDY    76  67  73 CALM      29.98F
N LITTLE ROCK  MOCLDY    73  69  88 NE3       29.98F
JACKSONVILLE   CLOUDY    74  71  90 NE2       29.98F
SEARCY         CLOUDY    73  72  97 CALM      30.00R
HOT SPRINGS    CLOUDY    75  71  87 E3        29.98R
RUSSELLVILLE   CLOUDY    73  71  93 CALM      29.97S
CLINTON        FAIR      73  73 100 SE3       30.00S
$$

ARZ036-300600-
EAST ARKANSAS

CITY           SKY/WX    TMP DP  RH WIND       PRES   REMARKS
WEST MEMPHIS   MOCLDY    76  73  91 CALM      29.98R
$$

ARZ050-053-066-070-073-300600-
SOUTHWEST ARKANSAS

CITY           SKY/WX    TMP DP  RH WIND       PRES   REMARKS
ARKADELPHIA    FAIR      78  77  97 CALM      29.96R
CAMDEN         CLOUDY    75  70  83 CALM      29.96R
TEXARKANA      CLOUDY    78  72  81 S6        29.95R
EL DORADO      CLOUDY    78  72  81 CALM      29.97R
DE QUEEN       MOCLDY    74  73  97 CALM      29.93R
$$

ARZ056-057-069-300600-
SOUTHEAST ARKANSAS

CITY           SKY/WX    TMP DP  RH WIND       PRES   REMARKS
PINE BLUFF     CLOUDY    76  73  91 CALM      29.97R
STUTTGART      CLOUDY    75  72  88 E7        29.99S
MONTICELLO     MOCLDY    78  72  81 CALM      29.98R

$$





USA.gov is the U.S. government's official web portal to all federal, state and local government web resources and services.